Weather past 2 weeks in Jamestown, Saint Helena

Now
68 °F

Mild.


Feels Like: 68 °F
Forecast: N/A
Wind: 18 mph from Southeast

Location: Saint Helena Island

Current Time: Apr 25, 2015 at 11:28:09 PM

Latest Report: Apr 25, 2015 at 10:00 PM


Visibility: N/A

Pressure: 30.11 "Hg

Humidity: 87%

Dew point: 64 °F

Location of JamestownLocation

Historic Weather in Jamestown — Graph

°F

Jamestown temperature yesterday

Maximum temperature yesterday: 72 °F (at 11:00 AM)
Minimum temperature yesterday: 66 °F (at 5:00 AM)
Average temperature yesterday: 68 °F

Past Weeks' High & Low Weather Summary

 TemperatureHumidityPressure
High74 °F (Apr 17, 12:00 PM)99% (Apr 16, 7:00 AM)30.11 "Hg (Apr 16, 7:00 AM)
Low64 °F (Apr 10, 11:00 PM)59% (Apr 13, 9:00 AM)29.95 "Hg (Apr 15, 4:00 PM)
Average69 °F83%30.04 "Hg
* Reported Apr 10 8:00 PM — Apr 25 8:00 PM, Jamestown, Weather by CustomWeather, © 2015

Note: Actual official high and low records may vary slightly from our data, if they occured in-between our weather recording intervals... More about our weather records

Advertising

Jamestown weather history for previous 24 hours

 ConditionsComfort  
Time TempWeatherWind HumidityBarometerVisibility
8:00 PM
Sat, Apr 25
68 °FMild.20 mph82%30.10 "HgN/A
7:00 PM68 °FMild.16 mph87%30.07 "HgN/A
6:00 PM69 °FMild.18 mph77%30.05 "HgN/A
5:00 PM70 °FMild.18 mph71%30.04 "HgN/A
4:00 PM70 °FMild.17 mph81%30.04 "HgN/A
3:00 PM71 °FMild.17 mph75%30.05 "HgN/A
2:00 PM72 °FMild.15 mph76%30.05 "HgN/A
1:00 PM71 °FOvercast.16 mph74%30.08 "Hg17 mi
12:00 PM71 °FOvercast.16 mph74%30.09 "Hg19 mi
11:00 AM72 °FOvercast.16 mph70%30.10 "Hg22 mi
10:00 AM71 °FMild.17 mph74%30.11 "HgN/A
9:00 AM70 °FMild.14 mph79%30.11 "HgN/A
8:00 AM68 °FMild.14 mph84%30.10 "HgN/A
7:00 AM67 °FMild.14 mph87%30.09 "HgN/A
5:00 AM67 °FMild.15 mph88%30.07 "HgN/A
4:00 AM67 °FMild.16 mph89%30.07 "HgN/A
3:00 AM67 °FMild.13 mph92%30.09 "HgN/A
2:00 AM67 °FMild.14 mph88%30.09 "HgN/A
1:00 AM67 °FMild.14 mph86%30.10 "HgN/A
11:00 PM
Fri, Apr 24
67 °FMild.20 mph83%30.11 "HgN/A
Weather by CustomWeather, © 2015

See weather overviewHow to use our weather pages